Flag for Kuwait Weather past 2 weeks in Kuwait City, Kuwait

55 °F


Feels Like: 54 °F
Forecast: 58 / 72 °F
Wind: 7 mph from North

Location: Kuwait International Airport

Current Time: Nov 25, 2015 at 7:35:23 AM

Latest Report: Nov 25, 2015 at 6:30 AM

Visibility: 3 mi

Pressure: 30.12 "Hg

Humidity: 77%

Dew point: 48 °F

Location of Kuwait CityLocation

Historic Weather in Kuwait City — Graph


Kuwait City temperature yesterday

Maximum temperature yesterday: 72 °F (at 3:00 PM)
Minimum temperature yesterday: 52 °F (at 11:30 PM)
Average temperature yesterday: 63 °F

Past Weeks' High & Low Weather Summary

High82 °F (Nov 17, 2:00 PM)100% (Nov 10, 11:00 PM)30.27 "Hg (Nov 10, 11:00 PM)
Low50 °F (Nov 16, 3:30 AM)21% (Nov 17, 2:00 PM)29.77 "Hg (Nov 10, 6:00 AM)
Average65 °F57%30.06 "Hg
* Reported Nov 10 6:00 AM — Nov 25 6:00 AM, Kuwait City, Weather by CustomWeather, © 2015

Note: Actual official high and low records may vary slightly from our data, if they occured in-between our weather recording intervals... More about our weather records


Kuwait City weather history for previous 24 hours

Time TempWeatherWind HumidityBarometerVisibility
6:00 AM
Wed, Nov 25
50 °FFog.5 mph88%30.09 "Hg3 mi
5:30 AM52 °FClear.5 mph82%30.09 "Hg4 mi
5:00 AM50 °FClear.3 mph82%30.09 "Hg4 mi
4:30 AM50 °FClear.3 mph82%30.09 "Hg4 mi
4:00 AM50 °FClear.3 mph82%30.09 "Hg4 mi
3:30 AM52 °FClear.No wind77%30.09 "Hg4 mi
3:00 AM50 °FClear.5 mph82%30.09 "Hg5 mi
2:30 AM52 °FClear.3 mph77%30.09 "Hg10 mi
2:00 AM54 °FClear.5 mph72%30.09 "Hg10 mi
1:30 AM54 °FClear.5 mph72%30.09 "Hg10 mi
1:00 AM55 °FClear.5 mph67%30.09 "Hg10 mi
12:30 AM55 °FClear.6 mph67%30.09 "Hg5 mi
12:00 AM54 °FClear.5 mph72%30.12 "Hg5 mi
11:30 PM
Tue, Nov 24
52 °FClear.7 mph77%30.12 "Hg5 mi
11:00 PM54 °FClear.8 mph77%30.12 "Hg5 mi
10:00 PM57 °FClear.No wind72%30.12 "Hg10 mi
9:30 PM55 °FClear.5 mph77%30.12 "Hg10 mi
9:00 PM59 °FClear.5 mph63%30.09 "Hg10 mi
8:30 PM59 °FClear.3 mph63%30.09 "Hg10 mi
8:00 PM61 °FClear.3 mph59%30.09 "Hg10 mi
7:30 PM63 °FClear.5 mph56%30.09 "Hg10 mi
7:00 PM64 °FClear.5 mph52%30.09 "Hg10 mi
6:30 PM66 °FClear.5 mph46%30.09 "Hg10 mi
6:00 PM68 °FClear.No wind43%30.07 "Hg10 mi
5:30 PM68 °FPassing clouds.3 mph43%30.07 "Hg4 mi
5:00 PM68 °FPassing clouds.3 mph43%30.07 "Hg4 mi
4:30 PM70 °FPartly sunny.7 mph40%30.07 "Hg5 mi
4:00 PM72 °FPartly sunny.6 mph36%30.04 "Hg5 mi
3:30 PM72 °FPartly sunny.3 mph36%30.07 "Hg5 mi
3:00 PM72 °FPartly sunny.6 mph38%30.07 "Hg5 mi
2:30 PM70 °FPartly sunny.6 mph40%30.04 "Hg5 mi
2:00 PM70 °FPartly sunny.7 mph38%30.07 "Hg5 mi
1:30 PM70 °FPartly sunny.7 mph40%30.07 "Hg5 mi
1:00 PM70 °FPartly sunny.9 mph43%30.04 "Hg4 mi
12:30 PM68 °FPartly sunny.8 mph49%30.07 "Hg4 mi
12:00 PM68 °FPartly sunny.7 mph53%30.09 "Hg4 mi
11:30 AM68 °FPartly sunny.8 mph49%30.09 "Hg3 mi
11:00 AM68 °FPartly sunny.10 mph49%30.09 "Hg3 mi
10:00 AM64 °FPartly sunny.9 mph64%30.12 "Hg2 mi
9:00 AM63 °FPartly sunny.5 mph68%30.15 "Hg2 mi
8:30 AM63 °FMostly cloudy.5 mph68%30.12 "Hg2 mi
8:00 AM61 °FPartly sunny.6 mph72%30.12 "Hg2 mi
7:00 AM59 °FPartly sunny.6 mph77%30.12 "Hg2 mi
Weather by CustomWeather, © 2015

See weather overviewHow to use our weather pages